#timestamp,LO_Frequency,Hit,StdDev 
1562378415.9,286047160.5,N
1562378435.7,286047159.7,Y
1562378455.6,286046999.9,P
1562378475.4,286046999.8,N
1562378495.2,286047000.5,N
1562378515.1,286046999.8,N
1562378516.0,286046999.8,N
1562378535.8,286046999.8,N
1562378555.7,286047000.2,N
1562378575.5,286047000.3,N
1562378595.3,286047000.1,N
1562378615.2,286047001.0,N
1562378635.0,286047000.1,N
1562378635.9,286047000.1,N
1562378655.8,286047002.5,N
1562378675.6,286047000.4,N
1562378695.4,286047001.2,N
1562378715.3,286046998.5,N
1562378735.1,286047001.0,N
1562378755.8,286047000.9,N
1562378775.7,286047001.1,N
1562378795.5,286046998.2,N
1562378815.4,286046998.1,N
1562378835.2,286046998.8,N
1562378855.0,286046998.1,N
1562378855.9,286046998.1,N
1562378875.8,286047002.2,N
1562378895.6,286047004.4,N
1562378915.5,286047001.6,N
1562378935.3,286047004.0,N
1562378955.1,286047002.9,N
1562378975.9,286047002.4,N
1562378995.7,286047001.6,N
1562379015.5,286047000.6,N
1562379035.4,286047000.8,N
1562379055.2,286046998.5,N
1562379075.1,286047000.9,N
1562379076.0,286047000.9,N
1562379095.8,286047001.2,N
1562379115.6,286047002.3,N
1562379135.5,286047001.7,N
1562379155.3,286047001.7,N
1562379175.2,286047001.8,N
1562379195.9,286047002.8,N
1562379217.6,286047002.6,N
1562379235.6,286047002.5,N
1562379255.4,286047002.2,N
1562379275.3,286047003.5,N
1562379295.1,286047003.5,N
1562379315.8,286047001.8,N
1562379335.7,286047001.7,N
1562379355.5,286047002.5,N
1562379375.4,286047000.2,N
1562379395.2,286047000.3,N
1562379415.0,286047002.7,N
1562379416.0,286047002.7,N
1562379435.8,286047002.7,N
1562379455.6,286047001.3,N
1562379475.5,286047004.2,Y
1562379495.3,286047002.1,P
1562379515.1,286047002.2,P
1562379535.9,286047003.5,P
1562379555.7,286047002.0,Y
1562379575.6,286047001.2,P
1562379595.4,286047000.6,N
1562379615.2,286047002.7,P
1562379635.1,286047000.1,N
1562379636.0,286047000.1,N
1562379655.8,286046999.9,N
1562379675.7,286046999.7,N
1562379695.5,286047000.1,N
1562379715.3,286047001.0,N
1562379735.2,286046999.9,N
1562379755.0,286047000.4,N
1562379755.9,286047000.4,N
1562379775.7,286047001.1,N
1562379795.6,286046999.7,N
1562379815.4,286047000.3,N
1562379835.3,286046998.6,N
1562379855.1,286047000.6,N
1562379875.8,286047000.8,N
1562379895.7,286046998.4,N
1562379915.5,286046998.1,N
1562379935.4,286046998.3,N
1562379955.2,286046999.3,N
1562379975.0,286046996.6,Y
1562379975.9,286046996.6,P
1562379995.8,286046999.2,N
1562380015.6,286046996.7,N
1562380035.4,286046997.0,N
1562380055.3,286046997.6,N
1562380075.1,286046995.3,Y
1562380125.9,286046998.3,E
1562380135.8,286046998.4,N
1562380155.7,286047001.1,P
1562380175.5,286047000.8,N
1562380195.3,286046998.8,N
1562380215.2,286047001.1,N
1562380235.0,286047001.0,N
1562380235.9,286047001.0,N
1562380255.8,286047000.7,N
1562380275.6,286046998.2,N
1562380295.4,286046998.9,N
1562380315.3,286046998.5,N
1562380335.1,286047000.9,N
1562380355.8,286046999.9,N
1562380375.7,286046999.9,N
1562380395.5,286047000.2,N
1562380415.4,286047002.4,N
1562380435.2,286047002.5,N
1562380455.0,286047001.5,N
1562380455.9,286047001.5,N
1562380475.8,286047001.6,N
1562380495.6,286047004.2,Y
1562380515.5,286047001.6,P
1562380535.3,286047002.0,P
1562380555.1,286047002.4,P
1562380575.9,286047000.5,N
1562380595.7,286047001.1,N
1562380615.5,286047000.9,N
1562380635.4,286047000.8,N
1562380655.2,286046997.0,Y
1562380675.1,286046999.2,P
1562380676.0,286046999.2,N
1562380695.8,286046998.5,N
1562380715.6,286047002.3,N
1562380735.5,286046998.9,N
1562380755.3,286046999.6,N
1562380775.2,286046998.8,N
1562380795.9,286046999.5,N
1562380815.7,286046996.9,N
1562380835.6,286046996.5,N
1562380855.4,286046998.5,N
1562380875.2,286046996.8,N
1562380895.1,286046998.5,N
1562380896.0,286046998.5,N
1562380915.8,286046999.0,N
1562380935.7,286046998.1,N
1562380955.5,286046998.4,N
1562380975.3,286046998.6,N
1562380995.2,286047000.8,N
1562381015.0,286046999.3,N
1562381015.9,286046999.3,N
1562381035.8,286046996.9,N
1562381055.6,286046998.0,N
1562381075.4,286046999.5,N
1562381095.3,286046998.9,N
1562381115.1,286046999.0,N
1562381135.8,286047000.6,N
1562381155.7,286046998.5,N
1562381175.5,286046998.6,N
1562381195.4,286046999.0,N
1562381215.2,286046996.9,N
1562381235.0,286046996.7,N
1562381235.9,286046996.7,N
1562381255.8,286046998.9,N
1562381275.6,286046997.6,N
1562381295.5,286046997.5,N
1562381315.3,286046996.8,N
1562381335.1,286046998.8,N
1562381355.9,286047001.0,N
1562381375.7,286046998.6,N
1562381395.5,286046996.9,N
1562381415.4,286046999.2,N
1562381435.2,286046998.2,N
1562381455.1,286046996.5,Y
1562381456.0,286046996.5,P
1562381475.8,286046998.3,N
1562381495.6,286046999.1,N
1562381515.5,286046999.0,N
1562381535.3,286046998.9,N
1562381555.2,286046998.6,N
1562381575.9,286046998.6,N
1562381595.7,286046998.2,N
1562381615.6,286046998.1,N
1562381635.4,286047001.2,N
1562381655.2,286046998.6,N
1562381675.1,286046999.1,N
1562381676.0,286046999.1,N
1562381695.8,286046998.6,N
1562381715.7,286047000.5,N
1562381735.5,286047000.3,N
1562381755.3,286047001.2,N
1562381775.2,286046998.2,N
1562381795.0,286046998.2,N
1562381795.9,286046998.2,N
1562381815.8,286047000.9,N
1562381835.6,286047000.5,N
1562381855.4,286047000.3,N
1562381875.3,286046999.9,N
1562381895.1,286047002.8,N
1562381915.8,286047001.8,N
1562381935.7,286047001.3,N
1562381955.5,286047004.0,N
1562381975.4,286047002.3,N
1562381995.2,286047002.2,N
